Flag for Germany Weather past 2 weeks in Plauen, Saxony, Germany

Now
49 °F

Overcast.


Feels Like: 49 °F
Forecast: 41 / 68 °F
Wind: 3 mph from South

Location: Hof

Current Time: May 30, 2015 at 5:02:56 AM

Latest Report: May 30, 2015 at 4:00 AM


Visibility: 14 mi

Pressure: 29.85 "Hg

Humidity: 86%

Dew point: 45 °F

Location of PlauenLocation

Historic Weather in Plauen — Graph

°F

Plauen temperature yesterday

Maximum temperature yesterday: 61 °F (at 3:00 PM)
Minimum temperature yesterday: 47 °F (at 6:00 AM)
Average temperature yesterday: 55 °F

Past Weeks' High & Low Weather Summary

 TemperatureHumidityPressure
High67 °F (May 18, 6:00 PM)100% (May 21, 2:00 AM)30.38 "Hg (May 21, 2:00 AM)
Low36 °F (May 22, 6:00 AM)30% (May 15, 4:00 PM)29.68 "Hg (May 18, 8:00 PM)
Average52 °F68%30.05 "Hg
* Reported May 15 4:00 AM — May 30 4:00 AM, Plauen, Weather by CustomWeather, © 2015

Note: Actual official high and low records may vary slightly from our data, if they occured in-between our weather recording intervals... More about our weather records

Advertising

Plauen weather history for previous 24 hours

 ConditionsComfort  
Time TempWeatherWind HumidityBarometerVisibility
4:00 AM
Sat, May 30
49 °FOvercast.3 mph86%29.85 "Hg14 mi
3:00 AM51 °FOvercast.5 mph82%29.84 "Hg15 mi
2:00 AM51 °FPassing clouds.6 mph83%29.83 "Hg16 mi
1:00 AM52 °FPassing clouds.2 mph88%29.84 "Hg17 mi
12:00 AM53 °FOvercast.2 mph82%29.83 "Hg22 mi
10:00 PM
Fri, May 29
54 °FOvercast.3 mph78%29.82 "Hg22 mi
9:00 PM56 °FOvercast.3 mph72%29.80 "Hg31 mi
8:00 PM59 °FOvercast.5 mph65%29.79 "Hg34 mi
7:00 PM60 °FOvercast.3 mph58%29.79 "Hg34 mi
6:00 PM60 °FOvercast.5 mph58%29.80 "Hg28 mi
4:00 PM57 °FLight rain. Overcast.3 mph72%29.85 "Hg16 mi
3:00 PM61 °FOvercast.6 mph57%29.83 "Hg22 mi
2:00 PM60 °FOvercast.5 mph59%29.86 "Hg28 mi
1:00 PM60 °FOvercast.6 mph54%29.87 "Hg22 mi
12:00 PM60 °FOvercast.5 mph60%29.88 "Hg25 mi
10:00 AM57 °FOvercast.5 mph58%29.92 "Hg19 mi
9:00 AM55 °FOvercast.3 mph72%29.93 "Hg11 mi
8:00 AM52 °FOvercast.2 mph83%29.95 "Hg7 mi
7:00 AM48 °FFog.1 mph95%29.96 "Hg4 mi
6:00 AM47 °FFog.No wind97%29.97 "Hg4 mi
Weather by CustomWeather, © 2015

See weather overviewHow to use our weather pages